Location: ??????
(55.6130°N, 37.7882°E)
Time: 12:36:15
(UTC+00:00)

Meteor 1-27 Rocket - Pass Details

Date: 14 April 2024
Orbit: 829 x 910 km, 81.3° (Epoch: 17 May)

Event Time Altitude Azimuth Distance (km) Brightness Sun altitude
Exits shadow 01:14:48 - 208° (SSW) 2,694 5.8 -9.9°
Reaches altitude 10° 01:15:12 10° 208° (SSW) 2,542 5.7 -9.8°
Maximum altitude 01:20:55 61° 289° (WNW) 986 3.9 -9.1°
Drops below altitude 10° 01:26:33 10° 10° (N) 2,503 6.8 -8.5°
Sets 01:29:00 0° 14° (NNE) 3,432 7.6 -8.2°
